Wind_Speed
26 25 26 34 36 31 32 34 32 31 34 35 34 34 34 32 31 33 34 35 36 35 35 34 30 22 18 19 21 22 21 19 19 22 24 24 24 24 22 21 23 24 24 26 28 29 28 27 26 26 25 24 25 25 25 26 26 25 24 24 25 26 25 24 24 24 24 23 23 22 21 20 20 20 20 20 20 19 20 21 22 22 22 21 20 19 19
27 29 30 32 32 30 33 36 36 35 35 35 34 35 36 36 36 36 35 34 35 34 32 33 33 30 26 23 22 26 27 23 20 21 22 23 24 25 24 23 23 24 23 24 28 30 28 27 29 30 29 27 26 26 25 26 26 24 23 23 26 28 29 27 26 26 25 24 23 22 22 21 20 21 20 20 20 19 19 21 22 22 22 22 21 21 21
26 27 29 31 32 30 32 37 39 38 37 36 35 37 39 39 39 39 38 35 33 31 30 31 32 33 30 27 24 25 27 26 23 21 21 23 24 24 24 25 25 26 24 22 25 27 27 29 31 31 30 28 28 28 27 26 25 22 20 20 23 27 31 32 31 29 28 26 23 22 22 21 21 21 21 21 21 20 19 20 21 22 22 22 22 22 21
24 23 22 24 25 26 29 33 35 34 34 36 37 39 41 41 41 40 40 39 36 33 31 29 29 29 28 26 24 23 25 26 25 23 22 23 24 23 23 22 22 25 24 22 23 24 25 26 27 27 27 26 27 28 27 26 24 21 20 19 20 23 28 33 34 32 30 27 22 21 23 23 22 22 22 23 23 21 21 21 22 22 22 22 22 22 21
20 21 20 18 17 21 26 29 30 30 33 36 38 39 40 42 43 41 40 41 40 37 35 32 29 28 28 27 25 23 23 24 24 24 25 25 24 24 25 23 22 25 25 23 25 26 25 24 24 25 25 24 25 25 24 23 22 20 18 17 16 17 21 27 30 30 29 26 23 23 26 26 25 24 24 24 24 23 23 23 24 24 23 22 22 23 23
16 19 18 16 16 22 26 28 27 27 31 35 38 39 38 40 44 44 43 42 42 40 39 38 34 32 30 29 28 27 28 28 27 27 28 27 25 23 24 25 26 28 26 24 25 26 24 23 23 25 24 23 24 25 23 22 23 21 18 15 16 16 17 21 25 25 27 27 26 27 28 28 28 28 28 27 26 26 26 26 26 26 25 24 24 24 25
13 17 19 18 19 22 26 27 27 27 28 30 33 34 35 35 40 45 45 44 44 42 41 42 41 37 32 30 29 28 28 31 33 33 32 30 26 23 23 24 24 25 25 24 23 24 24 22 21 23 23 22 22 22 23 23 24 22 19 16 16 16 16 19 22 23 25 27 28 30 31 31 31 30 30 31 30 30 30 30 29 28 28 27 26 26 27
10 13 17 19 20 22 24 27 29 28 27 26 27 29 30 30 34 41 45 46 45 43 42 43 44 41 36 32 33 31 27 25 27 31 34 34 29 27 25 23 22 21 21 21 20 21 24 25 22 21 21 22 24 22 21 22 22 21 19 17 15 15 15 17 18 19 19 21 24 27 30 32 33 33 33 34 34 34 34 33 32 32 32 32 31 30 30
9 11 13 17 19 21 23 25 27 27 27 26 26 27 28 28 29 33 38 42 44 43 41 39 39 41 38 34 35 37 34 29 25 24 27 29 30 31 32 30 26 23 21 22 22 21 22 23 22 20 18 20 23 21 18 18 19 19 17 16 16 17 17 17 17 16 16 17 19 21 23 27 30 32 34 35 36 36 36 36 36 36 36 36 35 35 34
8 9 11 14 18 19 20 21 23 26 27 26 25 25 26 28 28 28 29 33 37 39 37 31 30 35 37 35 34 37 38 37 34 30 27 26 27 30 34 36 34 29 24 24 26 26 27 27 27 26 23 22 22 22 20 18 19 20 18 17 17 19 19 19 19 18 17 17 17 18 19 20 22 24 26 28 30 32 33 34 36 38 39 39 39 38 37
7 9 10 13 16 18 19 19 20 22 23 22 22 25 28 27 27 26 26 28 31 33 33 30 26 27 31 32 33 35 36 36 37 36 33 31 31 31 31 34 36 35 31 27 26 25 25 27 29 31 32 31 31 31 30 29 28 26 24 23 23 23 22 21 21 21 21 21 21 21 21 21 20 20 20 21 23 25 27 29 32 35 38 39 40 40 40
7 9 11 14 16 18 19 19 18 18 19 19 21 25 28 28 27 27 28 29 30 31 31 30 28 26 27 28 30 32 32 31 34 36 33 31 31 32 31 31 33 36 37 36 33 30 27 27 28 30 33 36 37 38 37 35 32 29 27 27 27 28 26 24 24 24 23 24 25 24 24 24 24 23 23 23 24 24 25 25 26 28 29 31 33 34 34
9 10 13 14 15 16 17 17 15 15 17 20 22 24 26 27 27 28 29 29 31 32 32 31 31 29 28 28 28 30 30 28 29 32 33 30 29 29 29 29 30 33 35 37 37 36 35 34 33 33 34 35 38 39 37 36 34 31 29 29 30 31 30 28 27 26 25 26 26 25 24 25 25 25 26 26 26 26 26 25 25 25 26 26 27 26 25
11 12 13 12 12 13 14 15 15 15 16 20 22 23 24 26 26 27 28 28 29 31 31 32 32 31 30 29 27 27 29 30 31 31 31 31 30 30 30 29 29 30 32 34 36 37 38 37 37 37 37 36 37 38 38 37 36 34 33 32 32 32 32 31 31 29 29 29 29 27 27 26 25 26 27 28 28 26 26 26 26 26 27 27 27 26 24
13 13 13 12 10 9 11 14 15 16 16 18 20 22 23 24 26 27 27 27 28 29 29 30 31 31 32 32 30 28 27 29 33 35 35 35 34 34 34 34 33 33 33 34 35 36 38 38 38 39 39 40 40 40 39 39 38 37 36 35 34 34 33 33 32 32 31 32 32 31 30 29 28 27 28 29 28 26 26 26 26 27 27 27 27 27 26
14 14 14 13 11 10 12 13 12 13 15 16 18 20 21 22 25 26 27 27 27 27 28 28 29 30 31 32 33 32 30 29 30 32 34 36 35 34 35 36 37 36 37 37 36 36 38 39 39 40 40 40 41 41 41 40 40 39 39 38 37 37 35 34 34 33 32 33 33 33 32 32 31 31 30 30 29 28 29 29 30 30 30 29 28 28 27
14 15 15 15 13 13 13 13 12 12 14 15 17 19 19 20 22 24 25 26 26 27 27 27 27 27 29 30 32 33 33 33 32 31 31 32 33 33 34 35 36 36 37 38 39 39 39 40 40 41 41 41 41 41 41 40 40 40 40 40 39 39 38 37 36 35 34 34 34 34 35 35 34 33 33 33 32 32 32 32 32 32 32 32 31 30 29
14 15 15 15 14 14 14 15 15 15 15 16 17 18 18 19 20 21 22 23 24 25 26 27 27 26 25 27 29 30 31 33 34 33 32 31 32 33 34 35 36 36 36 37 38 40 41 41 41 42 42 43 43 42 42 41 41 40 40 40 40 40 41 40 39 37 36 35 35 36 37 36 35 35 35 35 34 34 35 36 35 35 35 34 33 33 32
12 13 14 13 13 13 14 15 16 17 17 17 17 17 18 19 19 20 20 21 21 22 23 24 25 25 24 24 25 27 29 31 32 34 34 33 33 34 35 36 37 37 38 38 38 39 41 42 43 43 43 43 44 44 44 43 43 42 40 40 40 41 42 42 41 39 37 36 36 38 39 38 37 37 36 35 34 35 37 38 37 37 37 36 35 34 35
9 10 12 12 11 12 13 14 14 16 17 17 17 18 18 19 20 20 20 20 20 20 21 22 23 23 23 22 22 23 25 28 30 32 33 33 32 32 33 35 36 37 39 40 40 40 41 42 43 44 44 43 43 43 44 44 45 44 43 42 41 41 41 42 42 40 39 39 39 39 40 41 41 39 38 36 36 36 38 38 37 37 37 37 37 37 36
9 10 10 10 10 11 11 12 13 14 15 16 17 17 18 20 21 22 21 21 21 21 21 21 22 22 22 21 20 20 21 25 28 31 33 33 32 30 30 32 33 34 37 39 41 42 42 43 44 45 45 45 44 43 43 44 44 45 45 45 44 43 42 43 43 42 42 43 43 42 42 43 43 42 40 40 39 39 40 40 40 40 40 39 39 40 39
10 10 11 11 11 12 12 13 14 14 14 15 16 16 16 18 20 21 21 21 22 22 22 22 22 22 22 21 20 19 19 20 22 26 30 32 33 32 32 32 32 32 33 35 38 40 41 42 43 44 46 46 46 45 45 45 44 44 45 46 47 46 45 44 44 45 45 46 45 45 44 44 43 43 44 45 44 42 42 42 43 45 45 44 42 41 40
11 12 13 14 14 13 14 15 15 15 14 15 16 15 15 16 17 19 20 20 21 22 22 23 23 23 24 23 22 21 19 19 19 21 24 26 29 30 32 32 33 33 33 33 35 36 38 39 40 42 44 45 47 47 47 47 46 46 45 46 48 49 49 47 47 47 48 48 48 48 47 44 43 43 45 47 47 46 45 44 44 45 46 46 44 42 40
14 14 15 16 16 15 15 15 16 16 16 16 16 16 17 17 18 19 20 21 21 22 23 23 24 25 25 24 24 23 21 21 20 21 22 23 24 26 28 29 31 33 34 35 36 36 37 38 38 39 39 41 43 45 46 46 47 47 46 46 48 49 49 49 49 49 48 47 47 49 50 49 47 46 47 48 48 48 48 47 45 43 42 43 42 40 40
15 16 17 17 18 17 17 17 17 17 18 17 17 18 19 19 20 21 22 23 23 23 24 24 25 26 26 26 25 25 24 23 22 22 22 23 24 24 25 25 27 29 31 33 35 37 38 38 39 40 39 39 40 41 42 43 44 45 45 45 46 48 49 49 49 50 49 46 44 46 50 52 52 50 50 51 50 48 48 51 51 48 44 41 40 39 39
16 16 17 19 19 18 17 18 18 18 19 19 18 19 20 21 22 22 22 23 24 24 24 25 25 26 27 28 27 27 26 25 25 24 24 25 25 25 26 26 26 27 28 30 32 34 36 38 39 40 41 41 41 41 41 41 41 42 43 43 44 46 47 48 49 49 49 48 45 43 45 50 53 52 50 50 51 50 50 51 52 52 49 46 43 42 42
18 17 18 19 20 19 19 19 19 19 19 20 20 21 21 22 23 23 23 23 24 25 25 25 26 27 28 28 29 29 28 28 27 27 27 27 27 27 28 28 29 29 29 30 31 32 33 35 36 38 40 41 42 42 41 41 41 40 40 40 41 42 44 47 49 49 48 48 48 45 42 44 49 52 51 47 46 47 50 51 52 51 50 49 47 45 44
16 17 18 19 19 19 20 21 21 20 20 21 22 22 22 21 23 24 24 24 24 25 26 27 28 28 29 30 30 30 31 31 30 30 30 29 30 30 31 31 32 32 32 32 33 34 35 35 35 36 37 39 40 41 41 41 41 41 39 38 38 38 39 42 45 47 47 47 48 48 48 46 47 50 52 50 45 43 44 47 49 50 49 49 48 47 47
14 16 17 19 19 20 21 22 22 22 23 23 24 24 23 23 22 24 24 24 24 25 26 28 29 30 30 31 31 32 32 33 33 33 33 32 32 32 32 33 34 34 33 32 33 34 35 37 38 38 38 38 39 40 40 40 41 42 42 40 39 37 36 37 39 42 43 43 44 46 48 49 48 48 49 52 51 47 45 44 44 45 46 47 48 49 50
14 15 17 18 20 21 22 22 23 24 24 24 25 25 25 24 24 25 26 26 26 26 26 27 28 30 31 32 33 33 34 34 34 35 35 35 35 35 35 36 36 36 36 37 37 36 35 35 36 37 38 40 40 40 41 41 40 41 42 43 43 42 41 40 39 39 39 39 41 43 45 48 49 49 49 51 53 53 51 50 47 46 46 47 48 50 52
14 16 17 19 20 21 22 23 24 24 25 25 25 26 26 25 26 26 27 28 28 29 29 28 29 30 31 32 33 34 35 36 37 37 37 38 38 38 38 39 39 39 40 41 42 42 41 39 38 38 38 38 39 40 42 43 43 42 43 44 44 45 45 46 45 44 42 41 40 41 43 46 49 50 51 52 53 54 54 54 53 51 51 51 52 53 54
16 17 18 20 21 22 23 23 24 24 24 25 25 26 26 27 27 27 28 29 29 30 30 31 31 31 32 33 34 35 36 38 39 39 40 40 41 41 41 41 42 43 43 43 45 46 46 45 44 44 43 40 38 39 41 43 44 45 45 45 46 46 46 46 46 46 46 46 45 44 44 45 48 50 51 52 52 53 53 53 53 52 51 52 53 53 54
17 18 20 21 21 23 24 24 24 24 24 24 25 25 26 27 28 29 30 30 31 31 31 31 32 32 33 34 35 36 37 39 40 41 42 42 43 44 44 44 44 45 45 46 47 48 49 48 47 47 47 47 47 47 45 44 44 45 46 46 47 47 47 47 47 46 45 46 48 48 47 47 48 50 51 51 51 51 51 52 52 51 50 51 52 53 54
20 20 21 21 22 24 25 25 24 25 24 24 25 26 26 27 29 30 31 31 31 32 32 32 33 33 34 35 36 37 38 39 40 42 43 44 45 45 45 46 46 46 46 47 48 48 50 51 50 48 48 48 49 49 47 45 44 45 45 46 47 47 47 47 48 47 46 45 46 48 50 51 50 50 50 50 51 51 51 51 52 53 53 52 52 53 55
21 22 22 23 24 24 25 25 25 25 25 25 26 27 27 28 29 30 31 31 31 31 32 33 33 34 35 36 37 38 39 39 40 41 42 43 44 45 45 46 46 47 47 48 48 48 49 50 50 49 48 47 46 47 48 48 47 46 46 46 47 47 48 48 49 48 48 47 46 47 49 51 53 53 52 51 50 50 50 50 50 52 54 54 54 54 54
22 23 24 25 26 26 26 25 25 25 26 26 27 28 28 28 29 29 30 31 31 32 32 33 34 35 36 37 38 38 39 39 40 41 42 43 43 44 45 45 46 47 47 48 48 48 48 49 49 48 47 46 47 50 51 51 49 47 44 43 43 44 46 48 49 49 48 47 46 46 48 50 52 53 54 54 53 52 51 50 49 49 50 52 54 54 53
23 24 24 25 27 27 27 26 26 26 27 27 28 28 29 29 29 30 30 31 31 32 33 34 35 36 37 38 39 39 39 40 40 41 42 43 43 44 44 45 45 46 46 46 46 46 47 47 47 46 45 44 44 46 48 50 51 50 47 44 43 44 46 47 48 47 47 46 45 44 45 47 49 51 52 53 54 54 53 54 53 51 49 49 49 50 49
24 24 25 26 27 28 28 27 27 27 28 28 29 29 29 29 30 31 31 32 33 34 35 36 37 37 38 39 39 39 40 40 41 41 42 42 43 44 44 44 45 45 45 45 45 45 46 46 45 45 46 46 44 44 45 46 47 49 51 51 49 48 48 48 47 47 47 46 45 45 46 46 47 48 49 49 50 50 52 53 55 55 54 52 50 49 48
24 25 26 27 28 29 29 28 28 28 29 30 30 30 30 30 31 31 32 33 34 35 36 37 37 38 39 40 40 40 40 40 41 41 42 43 43 44 44 44 45 46 46 46 46 45 45 45 45 45 47 48 47 46 46 45 45 46 47 48 48 49 50 49 48 47 46 45 44 45 47 47 47 46 46 46 46 47 48 50 51 52 53 54 54 53 52
26 26 27 28 29 29 29 29 29 29 30 30 31 31 31 31 32 32 33 34 35 36 36 37 38 39 39 40 40 41 41 41 41 42 43 43 44 45 45 45 45 46 46 46 46 45 44 44 44 44 45 46 47 47 46 45 46 48 47 45 45 46 48 50 51 51 49 48 48 47 47 48 48 47 46 45 44 45 46 47 48 48 49 50 52 53 53
27 28 29 29 29 29 30 30 30 30 31 31 31 31 32 32 33 33 34 35 36 37 37 38 39 39 40 41 41 41 41 41 42 42 43 44 45 45 45 45 45 45 45 45 44 44 44 43 44 44 44 44 45 46 45 43 42 45 46 46 44 44 45 47 51 52 52 51 51 51 50 49 48 47 47 47 47 46 46 45 45 45 46 48 49 50 51
29 29 30 30 30 30 30 30 30 31 31 31 32 32 33 33 34 34 35 36 37 38 38 39 39 40 40 41 41 41 41 41 42 43 44 45 45 45 45 44 44 44 44 43 43 43 43 43 44 45 45 44 44 44 45 43 40 41 44 47 47 46 44 44 44 45 46 47 48 49 50 50 49 49 49 50 50 49 48 46 45 44 45 47 48 49 50
30 30 31 31 31 31 31 31 31 31 31 32 32 33 34 34 35 36 36 37 38 38 39 39 40 40 40 40 40 40 40 41 42 43 44 44 44 43 43 42 42 42 41 41 41 42 43 45 46 46 45 44 43 44 44 42 38 37 41 46 49 48 47 43 39 37 37 38 39 40 41 42 44 47 49 51 52 53 52 50 49 47 47 47 47 48 49
31 31 31 31 31 32 32 31 31 31 31 32 33 33 34 35 36 37 37 38 38 38 38 39 40 40 40 39 39 39 40 41 42 42 42 41 40 40 40 39 39 40 40 41 42 44 45 46 46 45 44 43 43 44 45 45 43 41 40 42 44 47 50 50 47 44 42 41 40 39 38 38 40 42 44 46 47 50 51 52 52 52 51 51 50 49 48
32 32 32 32 32 32 32 32 32 31 32 32 33 33 34 36 37 37 37 38 38 38 38 39 39 39 38 38 38 39 40 40 40 39 38 38 37 37 37 37 38 39 40 42 43 43 43 43 41 40 39 40 41 42 43 46 48 48 45 41 41 44 48 51 52 52 51 50 49 48 48 47 47 47 47 46 46 46 48 49 51 52 54 54 53 52 51
33 33 32 32 33 33 33 33 33 32 32 32 33 33 34 36 37 37 37 38 38 38 38 38 38 37 37 37 37 37 37 37 37 36 36 35 34 34 35 36 37 38 38 38 38 38 37 37 35 34 35 36 37 37 37 39 43 45 44 42 40 40 42 44 47 49 50 50 50 49 49 48 48 47 48 48 48 47 47 48 49 51 52 53 53 54 54
33 33 32 32 33 34 34 34 33 33 32 32 33 34 35 35 36 37 37 37 37 36 36 36 36 36 36 35 35 35 34 34 34 34 33 32 32 32 32 31 31 31 31 31 31 31 31 30 30 30 32 33 32 32 32 33 35 37 38 38 37 37 37 38 41 43 45 46 47 46 46 46 46 46 46 47 48 47 47 47 48 49 51 51 52 53 54
33 33 32 32 33 35 35 34 34 33 32 33 33 34 34 34 35 36 36 36 35 35 35 35 34 34 34 34 33 32 32 31 31 30 29 29 28 28 26 25 25 25 25 25 24 24 25 25 25 26 28 29 28 27 27 29 30 31 31 31 32 32 33 34 36 38 41 42 43 43 44 45 46 46 46 46 47 46 46 46 46 47 48 49 50 51 52
34 34 33 33 34 35 35 34 33 33 33 33 33 33 33 34 35 35 35 34 34 34 33 33 32 32 32 31 31 30 30 29 28 27 26 25 25 23 21 20 20 20 20 19 19 19 20 21 21 22 23 25 26 27 28 29 29 28 28 28 29 29 30 31 33 35 37 38 39 40 41 42 43 44 44 45 45 45 44 44 45 45 45 45 46 47 48
34 34 33 33 33 34 34 34 33 33 33 32 32 32 33 34 34 33 33 33 33 32 32 31 31 30 30 30 29 28 28 27 26 25 23 22 21 19 19 18 18 18 18 17 17 17 18 19 20 21 22 22 23 25 27 28 29 29 30 31 31 31 31 31 32 33 33 34 35 37 38 39 40 41 42 42 42 43 43 43 43 43 43 44 44 44 44
33 33 33 32 32 33 33 33 32 32 32 32 31 31 32 33 32 31 31 32 31 31 30 30 30 29 28 28 28 27 27 26 25 23 22 20 18 17 17 17 18 18 18 18 17 17 18 18 20 20 21 21 21 22 23 24 25 26 27 28 28 29 29 29 29 29 29 30 31 33 34 35 37 37 38 38 39 39 40 40 41 41 42 42 42 42 42
32 31 30 30 30 31 31 32 32 32 31 30 30 31 31 31 30 30 30 30 30 29 28 29 29 28 27 27 27 27 26 25 24 22 20 19 18 16 15 15 16 18 18 18 18 18 18 19 19 20 21 21 22 22 22 22 23 23 24 25 26 26 26 27 27 26 25 25 25 26 28 29 31 32 33 33 33 32 32 32 33 34 35 36 36 37 37
Wind_Direction
223 226 209 189 181 180 186 190 191 193 196 199 202 206 214 218 216 217 220 225 230 227 221 221 222 226 233 226 222 233 235 225 223 226 227 227 226 226 227 228 229 228 229 228 219 211 212 216 217 217 219 223 225 223 223 225 228 232 236 237 234 231 231 231 232 234 236 237 238 239 237 235 236 238 240 242 241 239 242 245 245 243 242 240 239 239 239
226 227 218 207 199 191 190 194 195 195 197 200 203 203 207 214 216 216 215 221 230 230 226 225 221 221 234 237 232 239 239 230 224 225 229 232 228 224 223 225 229 230 233 231 221 213 212 213 213 211 210 213 216 218 220 223 226 228 232 238 238 236 235 235 232 233 237 240 241 241 240 238 239 241 241 243 244 240 240 245 245 244 244 243 242 240 240
226 229 224 221 218 207 199 200 198 196 199 205 205 201 203 211 216 218 218 222 229 229 227 229 226 225 234 239 239 241 240 237 236 232 229 230 230 227 224 224 228 229 231 229 224 220 218 216 214 212 209 210 211 212 216 220 223 225 229 236 240 238 237 235 231 228 232 237 240 243 246 244 244 245 243 243 246 245 244 247 248 248 247 247 246 244 243
224 226 223 223 226 221 213 209 204 202 207 210 208 204 205 210 215 219 222 225 228 226 226 233 235 231 231 233 234 237 237 240 244 243 237 233 233 233 229 226 227 227 224 219 218 220 221 221 222 220 219 217 211 210 213 218 222 227 231 233 237 240 240 237 233 230 229 230 231 238 245 244 245 247 246 244 245 246 247 247 249 251 249 248 249 249 248
228 223 215 212 220 226 225 223 217 215 218 216 212 211 210 212 214 217 222 227 229 228 230 236 242 241 239 237 236 235 236 240 242 243 242 239 238 238 236 233 230 226 221 217 217 218 218 218 219 220 222 220 215 214 216 219 221 226 229 227 231 243 246 240 235 233 233 233 233 236 239 239 243 248 248 247 245 244 246 247 248 250 249 246 247 248 249
231 223 212 205 211 220 227 232 231 225 223 221 217 217 219 219 217 217 221 226 229 231 233 235 242 248 247 245 246 245 243 242 240 241 242 242 240 239 236 235 233 229 224 220 219 218 217 216 215 217 219 218 218 220 223 225 226 225 224 222 225 232 237 239 239 235 234 237 238 240 240 240 241 245 246 247 246 244 244 244 245 246 247 248 247 248 250
233 228 218 212 215 222 227 231 234 232 230 228 223 219 221 223 221 220 222 224 227 232 235 237 241 245 245 244 245 246 246 244 241 242 243 243 241 238 235 235 233 229 226 226 223 220 220 221 219 218 221 222 223 226 229 232 232 227 220 216 218 219 220 228 236 237 235 235 236 239 242 244 244 244 245 246 246 245 246 246 246 246 246 246 248 250 253
232 233 228 220 218 224 228 229 233 236 238 239 233 222 218 221 221 222 224 227 229 232 236 239 241 242 243 244 241 239 243 246 243 242 241 240 238 235 232 230 227 225 228 233 232 226 226 230 232 232 233 232 229 229 230 230 229 228 224 221 222 224 223 226 232 236 237 236 235 236 240 243 245 245 246 247 247 246 247 248 249 249 248 248 247 246 249
233 234 233 227 223 226 229 231 234 237 239 242 240 228 221 222 224 224 227 230 231 233 236 240 241 241 242 245 241 237 240 244 241 239 240 239 236 233 231 229 226 227 235 241 239 233 229 230 232 234 237 234 228 223 219 221 230 236 234 230 230 233 233 233 236 239 242 242 240 237 238 241 244 245 246 248 249 249 249 249 249 250 251 252 252 252 252
235 233 234 232 231 234 235 234 235 237 238 242 243 238 232 229 228 228 229 231 231 234 237 242 243 241 241 244 244 240 241 243 242 241 243 245 240 233 230 230 231 234 239 243 244 243 243 242 238 235 234 233 230 226 226 236 248 252 248 243 243 244 243 242 243 244 246 245 242 240 240 241 243 245 247 248 250 252 253 253 252 252 253 255 257 259 261
234 231 231 231 234 241 244 243 241 239 240 243 246 245 243 237 231 230 232 233 233 236 241 246 250 247 243 244 244 243 244 246 246 246 247 248 245 239 234 234 236 236 236 237 239 238 239 241 241 240 240 241 241 242 248 257 264 263 260 257 257 256 255 253 251 252 253 252 249 246 245 245 246 248 250 251 252 255 256 256 255 255 254 255 257 260 262
239 235 233 231 234 239 244 250 253 250 247 248 248 248 247 243 238 237 238 238 239 242 246 250 253 253 248 245 243 243 245 248 247 246 246 245 244 241 238 237 238 239 239 240 242 240 237 238 240 243 246 249 251 254 258 263 265 265 263 262 262 263 262 260 258 257 255 254 251 249 249 251 251 251 252 254 255 255 256 256 255 254 253 254 255 257 259
248 242 239 237 239 242 244 251 258 261 257 253 250 249 248 246 244 245 246 245 246 249 252 253 254 254 252 249 246 244 244 244 242 241 241 243 246 246 242 238 236 238 240 243 245 245 244 242 241 243 247 251 253 256 258 260 261 261 262 261 262 264 264 261 259 255 252 250 249 250 251 253 253 252 253 253 252 251 253 253 252 251 250 250 250 251 250
256 251 249 248 247 248 250 251 256 263 263 256 252 251 251 251 252 252 251 251 251 253 254 255 255 254 252 251 250 248 245 241 238 237 240 245 250 252 251 246 240 239 239 242 244 246 247 246 244 244 247 250 253 255 257 258 259 259 259 259 259 260 259 258 257 254 252 251 250 250 249 250 250 250 250 250 248 247 248 248 250 251 250 249 249 248 248
261 261 261 263 265 263 260 258 259 264 264 260 257 256 254 255 257 255 254 254 255 255 255 255 255 254 252 251 252 253 252 248 245 246 248 251 253 254 255 253 249 245 241 242 244 245 246 248 248 247 248 250 253 255 256 257 258 258 258 256 256 255 255 254 253 251 250 250 251 250 249 248 248 247 248 249 248 244 241 243 248 252 251 250 250 249 250
264 266 266 268 270 267 264 263 266 271 270 265 262 258 257 258 259 258 257 257 257 258 258 257 257 257 256 254 253 254 254 253 253 253 255 257 258 259 258 256 254 249 244 244 247 247 247 247 249 250 249 250 252 253 254 255 256 257 257 256 255 254 254 254 252 250 248 248 249 251 252 250 248 246 246 248 249 247 245 246 250 252 252 252 251 249 249
259 259 261 263 265 265 266 266 266 269 269 267 263 260 259 260 261 261 260 260 260 261 262 262 263 262 261 260 259 257 256 255 255 256 258 259 259 259 257 256 254 252 247 245 247 250 251 250 250 251 251 251 251 252 252 253 253 253 254 254 254 254 254 253 252 250 248 246 247 249 250 249 248 246 245 246 248 249 250 251 251 250 250 250 249 248 248
259 260 261 263 265 267 268 266 266 266 265 264 265 264 262 261 262 262 261 262 263 264 265 266 267 267 267 265 263 262 260 259 258 258 258 259 260 259 257 255 255 255 253 249 248 249 251 252 252 252 251 251 252 252 252 252 252 251 252 252 252 252 253 253 253 251 249 248 247 247 247 246 245 245 244 244 246 249 251 252 251 249 248 247 247 247 248
268 269 269 268 268 268 268 268 270 271 268 266 266 267 266 265 265 264 263 263 265 267 269 270 270 270 270 268 266 264 262 260 259 259 259 260 261 260 258 257 256 255 255 254 252 250 250 251 252 252 252 252 252 252 252 252 251 251 251 251 251 251 251 253 253 252 251 249 248 247 246 245 244 245 246 246 246 248 249 248 247 248 249 249 248 248 248
279 279 278 276 275 274 273 273 275 275 274 271 269 268 268 268 270 270 268 266 267 269 271 273 274 274 274 272 269 265 262 259 258 258 258 260 261 261 260 258 257 256 255 255 254 253 251 251 251 252 253 253 253 253 253 253 252 251 251 251 250 250 249 250 252 252 250 249 247 245 245 245 245 245 246 246 245 245 246 246 247 249 250 250 250 248 248
287 287 285 282 280 279 278 277 274 273 275 276 273 271 269 269 271 273 273 271 270 271 272 274 275 277 277 276 274 270 266 262 258 257 257 258 261 263 263 261 260 259 257 256 255 255 254 253 253 253 253 253 253 253 253 253 253 253 253 252 251 250 248 247 248 248 247 246 245 244 243 244 244 244 244 244 244 243 245 248 250 250 249 248 249 248 248
284 286 283 281 279 279 281 280 278 276 277 279 280 278 275 274 273 274 275 276 275 274 274 275 276 276 277 278 278 276 273 270 265 261 259 260 261 262 262 262 262 261 261 259 258 257 256 256 256 255 255 255 254 252 251 251 252 254 255 254 253 252 250 248 248 248 246 245 244 243 242 243 243 242 242 243 243 243 244 245 249 251 249 247 247 247 247
279 278 278 279 279 280 281 280 279 279 278 278 281 281 278 277 277 277 277 277 277 277 277 276 276 276 276 276 276 275 274 272 270 267 265 263 263 262 261 260 259 259 260 261 260 259 259 259 259 259 259 258 258 256 254 252 252 254 256 255 253 252 252 252 251 249 246 244 244 244 243 243 242 242 241 242 243 243 243 243 248 252 249 244 244 245 245
276 275 277 278 278 280 281 280 280 280 278 278 280 280 278 275 275 275 276 276 275 275 276 277 277 276 276 275 275 275 273 270 268 267 266 265 265 264 263 261 260 258 258 257 257 258 258 258 260 260 260 260 260 260 259 257 256 256 256 256 254 251 251 253 254 251 248 245 243 243 244 244 245 244 242 242 242 243 242 241 244 249 247 243 242 243 244
277 277 279 280 279 279 280 281 281 281 279 278 278 277 276 275 274 274 274 274 275 275 275 276 277 277 277 277 277 277 275 273 270 268 267 267 267 266 265 264 264 262 260 258 256 256 256 256 258 260 261 261 261 261 262 261 261 259 258 257 256 253 252 252 253 252 251 248 246 246 245 244 244 244 244 243 242 242 242 241 243 246 248 247 245 245 245
283 282 280 281 282 283 283 282 280 279 279 279 279 278 279 279 279 277 276 276 277 277 277 277 277 277 277 277 277 277 277 275 273 271 269 267 266 265 265 265 266 265 264 262 260 258 257 257 257 258 260 261 261 262 263 263 263 263 261 259 258 256 254 253 252 251 250 249 248 249 248 244 241 242 244 244 243 241 241 241 243 246 249 251 250 249 250
285 285 283 283 286 287 286 282 279 277 277 278 279 281 283 284 283 283 282 281 280 280 279 278 277 277 277 277 277 277 278 277 277 275 273 271 269 267 265 265 266 266 265 263 263 262 260 259 258 258 259 260 260 261 262 262 262 264 264 262 260 257 255 255 254 253 252 250 248 248 248 246 243 241 241 243 245 243 242 242 243 245 248 250 251 251 250
286 288 289 290 290 289 286 284 281 279 278 278 280 281 282 284 285 285 284 284 284 284 283 281 279 278 278 278 278 278 278 279 279 278 277 276 275 272 269 267 266 266 265 264 263 262 261 260 260 259 259 260 260 261 261 260 260 260 261 262 261 259 255 253 254 255 255 255 253 251 250 251 250 246 243 243 246 246 244 243 243 243 245 248 250 250 250
292 293 295 296 295 293 289 286 285 283 280 280 282 284 284 285 285 285 285 284 284 284 284 284 283 281 280 279 279 278 278 278 279 279 279 278 277 276 273 271 269 268 268 268 266 264 263 262 261 260 260 260 260 261 261 261 260 258 257 257 258 258 256 253 253 255 256 256 255 253 252 253 253 251 248 246 246 245 246 246 244 242 243 245 246 248 249
296 297 299 300 300 298 295 291 287 285 283 283 282 283 285 287 288 288 287 286 285 283 281 281 282 282 282 282 281 279 278 278 278 278 278 278 277 276 275 273 272 270 270 270 270 270 269 267 265 264 263 262 260 260 261 262 261 261 260 258 257 257 257 256 255 257 259 259 256 253 251 250 249 249 249 248 247 246 247 249 248 247 246 246 246 247 249
302 304 306 307 306 303 299 295 290 286 285 284 283 283 285 286 287 288 288 288 287 286 284 282 280 280 280 280 280 280 280 279 277 277 276 276 275 275 274 274 273 271 270 270 271 271 271 270 269 269 270 267 265 263 262 261 261 261 261 261 260 259 258 258 257 257 258 260 260 256 252 249 247 246 246 246 247 246 247 248 250 249 248 247 247 247 249
306 308 311 313 311 307 301 296 292 288 286 284 284 284 285 286 286 287 287 287 287 286 285 284 282 280 279 279 279 279 279 279 278 277 276 275 274 274 273 273 273 272 271 271 270 271 271 270 269 269 269 268 268 268 267 265 263 261 261 261 261 261 260 259 259 257 256 256 257 258 257 252 249 247 246 246 247 247 247 248 250 250 249 248 247 248 249
308 312 316 317 314 309 304 299 294 290 287 285 285 285 286 288 289 289 289 288 287 285 284 283 282 281 281 280 280 280 280 280 279 279 278 277 276 275 274 273 273 273 272 272 271 271 271 271 269 268 267 266 267 269 269 267 264 262 261 261 261 261 261 260 259 258 257 254 253 254 255 254 252 249 248 248 248 248 247 248 249 249 249 248 249 250 252
309 312 316 317 314 309 306 301 296 291 288 287 286 286 288 289 290 290 290 289 287 286 285 284 283 282 282 282 281 281 281 280 280 279 279 278 277 277 276 275 275 274 273 272 271 271 270 270 269 268 266 266 266 266 265 264 262 261 262 263 262 261 261 261 260 259 258 256 254 252 252 253 253 251 249 250 250 250 249 249 248 248 249 249 249 249 250
309 310 312 314 313 309 305 300 295 291 289 287 287 288 290 291 291 290 290 289 288 287 286 286 286 285 285 284 283 283 282 281 280 279 279 278 278 278 277 277 276 275 274 272 271 270 269 268 268 267 265 263 261 260 260 261 261 262 263 263 263 262 261 260 259 258 257 257 256 254 252 253 253 253 252 251 252 253 253 253 252 250 250 251 251 251 251
304 306 309 311 310 309 306 300 294 291 289 288 290 291 293 293 293 292 291 290 289 288 287 287 287 287 287 287 287 286 285 284 282 281 280 280 279 279 278 277 277 276 275 273 272 271 269 267 267 267 266 263 260 258 258 259 259 260 261 262 261 260 260 260 259 259 258 257 256 255 254 253 254 255 254 254 253 253 254 256 257 255 253 252 253 255 257
300 303 306 308 309 308 305 300 294 291 289 289 291 293 294 295 295 293 292 291 289 288 288 287 288 289 289 290 289 289 287 285 284 282 282 281 280 280 279 278 277 276 275 273 272 271 270 268 267 266 264 263 260 258 258 258 257 256 257 257 257 258 259 260 260 259 258 256 256 256 255 254 254 255 255 256 256 255 255 255 256 257 257 256 255 254 256
298 300 303 305 307 307 304 299 294 291 290 291 292 293 294 295 295 294 293 292 290 289 288 288 288 289 290 291 291 290 289 287 285 284 283 282 281 281 280 279 278 276 275 273 272 270 269 267 265 261 259 258 257 255 255 256 257 256 255 255 255 257 259 260 260 259 257 256 256 256 255 255 254 255 255 256 256 256 256 256 256 257 257 258 258 258 257
297 299 301 304 305 305 303 300 295 292 291 291 291 292 292 293 293 293 293 292 292 291 290 290 290 291 292 293 293 291 290 288 287 285 284 283 282 282 281 280 278 277 275 273 272 270 267 265 262 260 258 257 256 254 253 252 253 254 254 253 251 252 253 255 257 257 256 256 256 255 255 255 254 254 255 256 256 255 255 255 256 257 257 257 258 259 259
296 297 299 301 303 303 301 298 294 291 290 289 290 290 291 291 292 293 294 295 295 294 293 292 292 292 293 293 293 292 290 289 287 285 285 284 283 283 282 280 278 277 275 273 271 269 266 263 261 259 256 254 252 252 252 251 250 250 251 250 251 252 253 254 256 256 255 255 255 255 256 257 256 254 254 254 255 255 255 255 255 256 257 257 257 257 257
297 297 298 299 301 301 299 296 293 290 288 288 289 289 290 291 293 294 296 297 298 298 296 294 293 293 294 294 293 292 290 288 287 286 285 284 284 283 281 280 278 276 274 272 270 267 265 262 260 258 257 255 252 249 248 250 251 251 249 248 249 251 252 253 254 255 255 254 253 252 252 254 255 255 255 254 254 254 254 255 255 255 256 257 257 257 257
296 296 296 298 300 301 300 298 295 292 291 290 290 290 291 293 294 295 297 298 299 299 297 295 294 294 294 294 293 292 290 289 288 287 286 285 284 283 281 279 277 275 272 270 269 267 265 264 263 261 259 258 256 250 246 247 252 254 250 246 243 243 243 245 248 251 252 252 251 250 250 251 251 252 253 253 253 253 253 253 254 254 254 255 256 257 258
296 295 296 297 300 302 302 301 298 295 294 293 293 293 294 295 296 296 297 298 299 298 297 296 295 295 295 294 293 292 290 289 288 288 287 286 284 283 281 279 276 274 273 271 270 270 269 269 267 265 261 258 255 250 245 243 245 247 247 245 243 241 239 240 243 246 248 248 248 249 250 250 250 249 249 250 251 252 253 253 253 253 253 253 253 254 255
297 296 296 298 301 302 303 302 300 298 296 295 295 295 295 296 296 297 298 298 299 298 297 296 295 295 295 295 294 292 291 290 290 289 287 286 284 282 281 279 277 275 274 273 273 273 273 271 269 266 261 256 251 247 242 238 236 238 241 242 242 241 241 242 244 248 250 251 251 251 251 254 255 255 253 252 253 253 254 254 254 254 254 254 253 253 254
298 297 298 299 301 303 304 304 303 301 299 297 297 296 296 296 297 297 298 299 298 298 297 296 297 297 297 296 295 294 293 292 291 289 288 286 285 283 282 281 280 279 278 277 276 275 273 270 267 263 256 250 247 246 243 241 241 243 246 247 245 245 245 247 250 253 255 256 257 258 258 260 261 262 260 259 257 256 256 255 255 255 255 256 256 256 256
298 298 298 299 301 304 305 305 304 303 301 299 298 298 298 298 298 299 299 299 299 298 298 298 298 298 298 297 296 295 294 293 291 290 289 287 287 287 286 285 284 283 282 280 278 274 269 265 260 254 248 244 243 244 243 243 244 248 252 253 252 251 252 253 254 255 257 258 259 260 261 261 261 261 260 260 259 258 257 256 256 255 256 256 257 257 258
297 297 297 298 301 303 305 306 305 304 303 302 301 301 300 300 300 300 300 299 299 300 300 300 300 300 299 298 298 297 295 293 292 291 290 290 291 291 291 289 288 287 286 284 279 272 264 258 252 245 240 239 239 240 241 241 243 246 251 253 254 254 255 256 256 256 256 257 258 259 259 259 259 259 258 258 259 258 258 257 256 255 255 256 257 257 258
297 297 297 297 299 302 305 306 306 306 305 304 304 303 303 302 301 301 300 301 301 302 303 303 302 301 301 301 300 298 297 295 293 292 292 293 294 294 293 293 293 292 292 290 284 273 264 256 249 241 237 236 236 237 239 241 243 245 248 251 251 252 252 253 253 254 255 255 256 257 256 256 257 257 257 257 257 257 257 257 256 256 256 255 256 256 257
298 299 298 297 298 301 304 306 307 307 307 306 305 305 304 303 302 301 302 303 304 305 305 305 305 304 303 303 302 300 299 297 296 294 294 295 295 295 295 296 298 298 297 294 289 280 270 261 253 244 239 237 236 236 238 241 243 246 248 250 251 252 252 251 251 252 253 254 255 255 255 255 255 256 256 256 256 257 257 257 257 256 256 256 256 256 257
300 300 298 297 298 301 304 307 308 308 308 307 306 305 304 303 303 303 305 307 307 308 307 307 307 306 306 305 304 303 302 300 298 296 295 294 294 293 293 294 296 299 300 297 292 284 275 266 259 252 247 244 242 241 242 243 246 249 251 253 254 255 256 255 254 254 255 255 255 254 254 254 254 255 256 257 258 258 258 258 258 258 257 257 257 257 257
299 299 298 298 300 303 306 307 308 309 308 307 306 305 305 304 304 306 308 309 310 310 309 309 308 308 308 307 306 305 303 301 300 299 296 293 290 288 288 289 291 294 296 296 292 285 275 267 259 255 252 251 250 250 250 249 250 251 253 254 256 257 257 257 256 256 256 256 256 255 255 254 255 256 258 259 260 261 262 262 261 260 260 259 259 258 258
299 299 300 302 304 306 307 308 309 308 307 306 305 305 305 306 307 309 310 311 312 311 311 310 311 311 311 311 310 308 305 303 302 300 297 292 287 285 284 286 290 292 294 294 292 285 275 266 259 254 251 252 254 255 256 257 257 259 260 260 261 261 261 258 256 256 257 257 257 257 257 257 257 257 259 260 261 263 264 265 264 263 262 260 260 260 259
Height
5815 5818 5821 5823 5824 5826 5827 5827 5828 5830 5834 5837 5838 5839 5839 5840 5841 5842 5844 5846 5846 5850 5855 5860 5863 5864 5864 5865 5867 5867 5868 5870 5872 5873 5873 5873 5874 5877 5879 5882 5883 5885 5886 5887 5887 5886 5887 5890 5892 5894 5895 5898 5900 5902 5903 5905 5906 5908 5909 5911 5912 5914 5915 5916 5917 5917 5918 5920 5922 5923 5925 5926 5927 5928 5930 5931 5932 5935 5936 5936 5937 5938 5939 5940 5941 5942 5943
5813 5814 5818 5821 5822 5824 5825 5825 5825 5826 5829 5830 5831 5834 5837 5839 5839 5839 5842 5843 5843 5847 5853 5857 5860 5861 5860 5862 5865 5865 5865 5868 5871 5873 5873 5872 5872 5873 5877 5879 5881 5883 5885 5885 5885 5884 5884 5886 5887 5888 5889 5892 5895 5897 5899 5901 5902 5904 5906 5907 5908 5910 5911 5912 5914 5915 5916 5918 5919 5922 5923 5925 5925 5926 5927 5928 5929 5931 5933 5933 5934 5935 5936 5937 5938 5939 5940
5811 5812 5815 5818 5819 5821 5822 5822 5822 5823 5824 5825 5827 5831 5834 5836 5837 5838 5839 5840 5842 5846 5849 5851 5854 5856 5857 5859 5861 5861 5862 5865 5867 5870 5872 5872 5871 5872 5873 5874 5876 5879 5881 5882 5884 5884 5884 5885 5885 5885 5886 5887 5889 5891 5895 5897 5899 5900 5902 5903 5904 5905 5906 5908 5910 5912 5914 5916 5918 5920 5922 5923 5924 5924 5925 5925 5926 5928 5930 5931 5932 5933 5933 5934 5935 5936 5937
5808 5810 5813 5815 5816 5818 5819 5819 5821 5822 5822 5823 5825 5828 5830 5833 5835 5836 5837 5838 5840 5843 5845 5845 5848 5851 5854 5857 5858 5859 5860 5861 5863 5866 5868 5870 5871 5871 5871 5871 5873 5875 5876 5879 5881 5882 5883 5884 5885 5886 5886 5886 5887 5889 5891 5894 5896 5897 5899 5900 5901 5901 5902 5903 5906 5908 5910 5912 5915 5917 5919 5921 5922 5922 5922 5923 5924 5925 5927 5928 5929 5930 5931 5932 5932 5933 5934
5807 5808 5810 5812 5814 5815 5817 5819 5821 5822 5821 5821 5824 5826 5828 5830 5832 5834 5835 5835 5837 5840 5842 5843 5844 5846 5850 5853 5856 5858 5859 5859 5860 5862 5863 5865 5867 5869 5869 5870 5872 5872 5873 5876 5878 5878 5879 5881 5883 5884 5884 5885 5886 5887 5889 5891 5893 5894 5895 5896 5897 5897 5898 5900 5902 5906 5908 5909 5911 5913 5914 5916 5918 5919 5920 5920 5921 5923 5925 5925 5926 5927 5928 5929 5930 5930 5931
5806 5806 5808 5810 5811 5813 5814 5816 5818 5819 5819 5819 5821 5823 5825 5827 5829 5830 5831 5832 5834 5837 5839 5840 5842 5843 5845 5849 5852 5855 5856 5856 5856 5857 5858 5859 5861 5864 5866 5867 5868 5868 5870 5872 5874 5874 5875 5876 5878 5880 5882 5883 5883 5884 5886 5888 5890 5891 5892 5893 5893 5894 5896 5898 5900 5903 5905 5906 5908 5909 5909 5912 5914 5915 5916 5917 5918 5920 5921 5922 5923 5924 5925 5927 5928 5928 5929
5804 5805 5806 5808 5809 5811 5812 5812 5814 5815 5815 5816 5819 5822 5823 5825 5826 5827 5828 5829 5831 5833 5835 5837 5839 5840 5843 5846 5848 5850 5850 5850 5851 5851 5853 5856 5858 5860 5862 5863 5863 5865 5866 5867 5869 5870 5872 5874 5876 5877 5879 5880 5881 5881 5883 5885 5886 5888 5889 5891 5892 5893 5894 5896 5897 5899 5902 5903 5905 5906 5907 5908 5910 5912 5913 5914 5915 5916 5916 5917 5919 5921 5922 5923 5924 5925 5926
5803 5804 5805 5806 5807 5807 5808 5809 5810 5812 5813 5815 5817 5819 5820 5822 5823 5825 5826 5827 5829 5831 5833 5834 5835 5837 5839 5841 5843 5844 5843 5844 5846 5846 5848 5852 5854 5856 5859 5859 5860 5862 5863 5864 5866 5869 5870 5872 5873 5873 5875 5877 5878 5879 5880 5882 5883 5885 5886 5888 5891 5892 5892 5893 5894 5896 5899 5900 5901 5902 5903 5904 5906 5908 5909 5910 5911 5912 5913 5914 5915 5916 5918 5919 5920 5921 5922
5801 5802 5803 5804 5805 5804 5805 5807 5808 5809 5811 5812 5813 5815 5818 5819 5819 5822 5824 5825 5826 5828 5829 5830 5832 5833 5835 5836 5837 5838 5838 5839 5841 5843 5844 5847 5850 5852 5855 5856 5857 5859 5861 5862 5864 5866 5868 5869 5870 5871 5872 5874 5875 5877 5878 5880 5881 5882 5884 5886 5887 5889 5890 5890 5891 5892 5895 5897 5898 5899 5899 5900 5902 5903 5905 5906 5907 5908 5909 5910 5911 5912 5912 5914 5915 5916 5917
5800 5801 5801 5802 5802 5802 5803 5805 5806 5807 5809 5810 5811 5812 5814 5815 5816 5820 5822 5821 5822 5823 5824 5826 5828 5829 5830 5832 5832 5833 5833 5835 5838 5840 5841 5843 5845 5848 5851 5853 5854 5856 5859 5860 5861 5863 5865 5867 5868 5869 5870 5872 5874 5875 5876 5877 5879 5880 5881 5883 5884 5885 5886 5887 5888 5889 5891 5893 5894 5895 5896 5897 5898 5899 5901 5902 5903 5904 5905 5906 5907 5908 5908 5909 5910 5911 5912
5799 5799 5800 5800 5801 5801 5801 5803 5804 5805 5807 5808 5808 5808 5809 5811 5815 5818 5818 5818 5818 5819 5819 5822 5824 5825 5826 5828 5829 5830 5831 5833 5836 5838 5839 5840 5842 5844 5847 5849 5850 5852 5855 5856 5857 5858 5860 5863 5864 5865 5867 5868 5869 5870 5871 5873 5875 5877 5878 5880 5881 5882 5883 5884 5885 5887 5889 5890 5891 5892 5893 5895 5896 5897 5898 5899 5900 5901 5901 5902 5903 5903 5904 5905 5906 5906 5907
5797 5797 5797 5798 5798 5799 5800 5801 5802 5804 5804 5805 5805 5805 5806 5809 5813 5814 5814 5815 5815 5815 5816 5818 5820 5822 5823 5825 5826 5828 5829 5831 5833 5834 5834 5835 5837 5840 5843 5846 5848 5849 5850 5852 5853 5854 5856 5858 5859 5861 5862 5863 5864 5866 5867 5869 5871 5873 5875 5877 5878 5879 5881 5883 5884 5885 5886 5887 5887 5889 5890 5892 5893 5894 5895 5896 5897 5897 5897 5898 5899 5899 5900 5901 5901 5902 5902
5796 5795 5795 5796 5797 5798 5799 5800 5801 5801 5802 5802 5803 5803 5804 5807 5809 5809 5810 5812 5812 5812 5814 5815 5817 5819 5821 5822 5824 5825 5827 5828 5829 5830 5831 5832 5835 5836 5839 5842 5844 5846 5847 5848 5849 5851 5853 5855 5856 5857 5858 5859 5860 5862 5864 5866 5867 5869 5872 5874 5875 5877 5878 5880 5881 5882 5883 5884 5884 5885 5887 5888 5889 5890 5891 5891 5892 5893 5894 5895 5896 5896 5896 5897 5898 5898 5899
5794 5794 5794 5795 5796 5797 5798 5798 5799 5799 5799 5800 5800 5801 5802 5804 5805 5805 5807 5808 5809 5810 5811 5812 5814 5815 5817 5819 5820 5822 5823 5825 5826 5827 5828 5830 5831 5833 5834 5837 5839 5842 5843 5845 5846 5847 5848 5850 5852 5854 5854 5855 5856 5857 5860 5861 5863 5864 5867 5869 5871 5873 5874 5875 5877 5879 5880 5881 5881 5882 5883 5884 5885 5886 5886 5886 5888 5889 5890 5891 5892 5893 5894 5894 5895 5895 5896
5793 5793 5794 5794 5795 5796 5796 5796 5797 5797 5797 5797 5798 5799 5801 5801 5801 5801 5804 5806 5806 5807 5808 5809 5810 5812 5813 5815 5816 5817 5819 5821 5823 5824 5825 5827 5828 5829 5830 5831 5834 5837 5839 5841 5842 5843 5843 5844 5846 5848 5850 5851 5852 5853 5855 5857 5858 5859 5861 5863 5865 5867 5869 5870 5872 5873 5875 5876 5877 5877 5878 5880 5881 5882 5882 5882 5883 5885 5886 5887 5888 5889 5890 5891 5891 5892 5892
5792 5792 5792 5793 5794 5794 5794 5795 5795 5795 5795 5796 5796 5797 5799 5799 5798 5799 5801 5802 5803 5804 5805 5806 5807 5808 5809 5811 5812 5813 5815 5817 5819 5820 5822 5823 5825 5826 5826 5827 5828 5831 5833 5836 5838 5838 5839 5839 5840 5842 5844 5846 5847 5848 5850 5852 5854 5855 5856 5858 5860 5862 5863 5864 5866 5868 5870 5871 5872 5873 5874 5875 5877 5878 5878 5878 5879 5881 5882 5884 5885 5886 5886 5887 5888 5888 5889
5791 5791 5791 5791 5792 5793 5793 5793 5794 5794 5794 5794 5794 5795 5796 5796 5795 5796 5798 5799 5800 5801 5802 5803 5804 5805 5806 5807 5808 5809 5811 5813 5814 5816 5818 5819 5821 5822 5823 5823 5824 5825 5827 5830 5832 5834 5835 5836 5837 5837 5838 5840 5842 5843 5845 5847 5849 5850 5851 5853 5855 5857 5858 5859 5860 5862 5864 5866 5867 5868 5869 5871 5872 5873 5874 5875 5875 5876 5878 5879 5880 5881 5882 5883 5884 5884 5885
5789 5789 5789 5790 5791 5791 5792 5792 5792 5792 5792 5792 5792 5793 5794 5794 5793 5794 5795 5796 5797 5798 5798 5799 5801 5802 5803 5804 5804 5805 5807 5808 5810 5811 5813 5815 5816 5818 5819 5820 5821 5822 5823 5825 5826 5829 5830 5832 5833 5834 5835 5836 5837 5838 5839 5841 5842 5844 5846 5848 5850 5852 5853 5853 5855 5857 5859 5861 5862 5863 5864 5866 5867 5868 5869 5870 5872 5873 5873 5873 5874 5875 5876 5877 5879 5880 5880
5787 5788 5788 5789 5789 5790 5790 5790 5790 5790 5791 5791 5791 5791 5792 5792 5792 5792 5793 5794 5794 5795 5795 5796 5797 5798 5800 5801 5801 5802 5803 5804 5805 5807 5808 5810 5812 5813 5814 5816 5817 5818 5819 5820 5822 5823 5825 5827 5828 5829 5831 5832 5832 5833 5834 5835 5836 5838 5840 5842 5844 5846 5847 5848 5850 5852 5854 5855 5857 5858 5859 5861 5862 5863 5864 5866 5868 5868 5867 5867 5868 5870 5871 5873 5875 5875 5875
5786 5786 5786 5787 5788 5788 5788 5789 5789 5789 5788 5789 5789 5790 5790 5790 5790 5790 5790 5791 5792 5792 5792 5793 5794 5794 5796 5797 5798 5799 5800 5800 5801 5802 5804 5805 5807 5808 5810 5811 5813 5814 5815 5816 5817 5819 5820 5822 5823 5824 5825 5826 5827 5828 5829 5830 5832 5833 5834 5836 5838 5839 5841 5843 5845 5847 5848 5850 5851 5852 5854 5855 5856 5857 5859 5861 5862 5863 5862 5862 5864 5866 5866 5868 5869 5870 5870
5785 5785 5785 5785 5786 5786 5786 5787 5787 5787 5787 5786 5787 5787 5787 5787 5788 5788 5788 5788 5789 5790 5790 5790 5791 5792 5792 5793 5795 5796 5796 5797 5797 5799 5799 5800 5802 5803 5805 5806 5807 5808 5809 5810 5812 5814 5815 5817 5818 5819 5820 5821 5821 5823 5824 5825 5826 5828 5829 5830 5831 5833 5834 5836 5839 5841 5842 5844 5845 5847 5848 5849 5850 5852 5854 5855 5856 5857 5857 5858 5859 5860 5861 5862 5863 5864 5865
5783 5783 5782 5783 5783 5784 5784 5784 5784 5785 5785 5785 5785 5785 5785 5785 5785 5785 5786 5786 5786 5787 5787 5788 5789 5789 5790 5791 5792 5793 5793 5793 5794 5795 5795 5796 5797 5798 5799 5801 5802 5803 5804 5805 5807 5808 5809 5811 5813 5814 5815 5815 5816 5818 5819 5820 5821 5822 5823 5824 5825 5827 5828 5830 5831 5833 5835 5838 5840 5841 5842 5843 5845 5847 5847 5848 5850 5851 5851 5852 5853 5853 5854 5856 5857 5858 5860
5781 5781 5780 5781 5781 5782 5782 5782 5782 5783 5783 5783 5783 5783 5783 5783 5783 5783 5783 5783 5784 5784 5784 5784 5785 5786 5786 5787 5789 5790 5791 5791 5791 5792 5792 5793 5793 5793 5794 5796 5797 5798 5799 5800 5801 5802 5803 5805 5806 5808 5809 5810 5810 5812 5813 5815 5816 5817 5818 5818 5820 5821 5822 5823 5824 5826 5828 5831 5833 5835 5836 5837 5839 5841 5841 5842 5843 5844 5845 5846 5847 5847 5848 5849 5851 5852 5854
5779 5779 5779 5779 5779 5779 5780 5780 5780 5780 5781 5781 5781 5781 5781 5781 5781 5781 5781 5781 5781 5781 5781 5781 5781 5782 5782 5783 5785 5786 5787 5788 5789 5789 5789 5789 5790 5790 5790 5791 5791 5793 5794 5795 5796 5797 5797 5799 5800 5801 5802 5804 5805 5806 5807 5808 5810 5811 5812 5813 5814 5815 5816 5817 5818 5819 5822 5824 5826 5828 5829 5830 5832 5834 5834 5835 5836 5837 5839 5840 5841 5841 5841 5843 5844 5846 5848
5777 5777 5776 5776 5777 5777 5778 5778 5778 5778 5778 5778 5779 5778 5778 5778 5778 5778 5778 5778 5778 5778 5778 5778 5778 5778 5778 5779 5780 5781 5782 5784 5785 5785 5786 5786 5786 5786 5786 5786 5787 5787 5788 5789 5790 5791 5792 5792 5793 5794 5796 5797 5798 5800 5801 5802 5803 5804 5805 5806 5808 5809 5810 5811 5812 5813 5815 5817 5819 5821 5822 5823 5824 5825 5826 5827 5829 5831 5833 5834 5835 5835 5836 5837 5838 5840 5842
5774 5775 5774 5774 5774 5774 5775 5775 5775 5775 5774 5775 5775 5775 5775 5775 5775 5775 5775 5774 5774 5775 5775 5775 5775 5775 5775 5775 5776 5777 5777 5778 5779 5780 5781 5781 5781 5781 5782 5782 5782 5782 5783 5783 5784 5785 5785 5786 5787 5788 5789 5790 5791 5793 5794 5795 5796 5797 5798 5799 5801 5802 5803 5805 5806 5807 5808 5810 5811 5813 5815 5816 5816 5817 5819 5820 5822 5824 5825 5827 5828 5829 5831 5832 5833 5834 5836
5772 5772 5772 5771 5771 5771 5771 5771 5772 5772 5772 5772 5772 5772 5772 5772 5771 5771 5772 5771 5771 5771 5771 5771 5771 5771 5771 5771 5771 5772 5773 5773 5774 5774 5775 5775 5776 5776 5776 5777 5777 5777 5777 5778 5778 5779 5779 5780 5781 5781 5782 5783 5784 5786 5787 5788 5789 5790 5791 5792 5793 5795 5796 5797 5798 5800 5801 5803 5804 5806 5808 5809 5810 5811 5812 5814 5815 5816 5818 5819 5821 5823 5825 5826 5828 5829 5829
5770 5769 5769 5769 5768 5768 5768 5768 5768 5768 5768 5768 5768 5768 5769 5769 5768 5767 5767 5768 5768 5767 5767 5767 5767 5767 5767 5767 5767 5767 5768 5768 5768 5769 5769 5769 5770 5770 5770 5771 5771 5771 5771 5772 5772 5772 5773 5773 5774 5775 5776 5776 5778 5779 5780 5782 5783 5784 5785 5786 5787 5788 5789 5790 5791 5792 5793 5795 5797 5798 5800 5802 5804 5804 5805 5807 5808 5810 5811 5811 5814 5817 5819 5820 5822 5822 5821
5768 5767 5766 5766 5766 5765 5765 5764 5764 5764 5765 5765 5764 5764 5764 5765 5765 5764 5764 5764 5765 5764 5764 5763 5762 5762 5763 5763 5763 5763 5763 5763 5763 5763 5763 5763 5763 5763 5764 5764 5764 5764 5764 5765 5765 5766 5767 5767 5768 5770 5770 5770 5771 5772 5773 5775 5776 5777 5778 5779 5780 5781 5782 5783 5784 5785 5786 5787 5789 5791 5792 5794 5796 5797 5799 5800 5801 5803 5803 5804 5807 5811 5812 5813 5814 5813 5812
5765 5765 5764 5763 5763 5762 5762 5761 5761 5761 5761 5761 5761 5761 5761 5761 5761 5760 5760 5760 5760 5760 5760 5760 5759 5758 5758 5758 5757 5757 5758 5758 5758 5758 5757 5757 5757 5757 5757 5757 5757 5757 5758 5758 5758 5760 5761 5762 5762 5763 5763 5764 5765 5766 5766 5768 5769 5770 5771 5772 5773 5775 5776 5777 5778 5779 5780 5780 5782 5783 5785 5787 5788 5790 5792 5793 5793 5795 5796 5797 5801 5804 5805 5805 5806 5806 5805
5763 5762 5761 5761 5760 5759 5759 5758 5758 5757 5757 5757 5757 5757 5757 5757 5757 5756 5756 5755 5755 5755 5755 5755 5755 5754 5754 5753 5752 5752 5752 5752 5752 5752 5751 5751 5750 5750 5751 5751 5750 5751 5751 5752 5752 5753 5754 5755 5756 5757 5757 5757 5758 5759 5759 5760 5762 5763 5764 5764 5766 5767 5768 5769 5771 5772 5773 5774 5775 5776 5778 5779 5781 5782 5783 5784 5785 5787 5789 5790 5793 5796 5798 5798 5799 5800 5799
5760 5759 5758 5758 5757 5756 5756 5755 5754 5754 5754 5754 5754 5753 5753 5753 5753 5752 5752 5752 5751 5750 5750 5750 5749 5749 5749 5748 5748 5747 5746 5746 5745 5745 5744 5744 5743 5743 5744 5744 5744 5744 5744 5745 5745 5746 5747 5748 5749 5750 5751 5752 5751 5752 5753 5753 5754 5755 5756 5757 5758 5759 5760 5761 5763 5764 5766 5767 5768 5770 5771 5773 5774 5775 5775 5776 5777 5779 5781 5783 5785 5788 5790 5791 5792 5793 5793
5757 5756 5756 5755 5754 5753 5752 5752 5751 5751 5751 5750 5750 5750 5749 5749 5748 5748 5748 5747 5746 5746 5745 5745 5744 5744 5743 5743 5742 5741 5741 5740 5739 5738 5737 5736 5736 5736 5736 5737 5738 5738 5737 5738 5738 5738 5739 5740 5740 5741 5743 5744 5744 5745 5746 5746 5747 5748 5749 5749 5749 5751 5752 5753 5754 5756 5758 5759 5760 5762 5764 5766 5766 5767 5768 5769 5770 5772 5773 5775 5777 5779 5781 5783 5784 5785 5785
5753 5753 5753 5752 5751 5750 5749 5748 5748 5747 5747 5747 5746 5746 5746 5745 5744 5744 5743 5742 5741 5741 5740 5739 5739 5739 5738 5737 5736 5735 5735 5734 5733 5731 5730 5729 5728 5728 5729 5729 5730 5731 5730 5730 5730 5730 5730 5731 5731 5732 5735 5736 5736 5736 5737 5738 5739 5740 5741 5742 5742 5743 5744 5745 5746 5748 5750 5751 5752 5754 5756 5757 5757 5759 5760 5761 5762 5763 5765 5767 5769 5771 5773 5774 5775 5777 5776
5750 5750 5749 5749 5748 5747 5746 5745 5744 5744 5743 5743 5742 5742 5741 5741 5740 5739 5738 5737 5737 5736 5735 5734 5733 5733 5732 5731 5730 5730 5729 5727 5726 5725 5723 5722 5721 5721 5722 5722 5722 5722 5723 5723 5723 5723 5722 5722 5723 5724 5726 5727 5727 5726 5727 5730 5731 5732 5733 5735 5736 5736 5736 5736 5737 5740 5742 5743 5744 5746 5748 5748 5749 5750 5752 5753 5754 5756 5757 5759 5761 5762 5764 5765 5766 5767 5767
5747 5746 5746 5745 5744 5744 5743 5742 5741 5741 5740 5739 5738 5737 5737 5736 5735 5734 5733 5732 5731 5730 5730 5729 5728 5727 5726 5725 5724 5723 5722 5721 5719 5717 5716 5715 5714 5714 5714 5715 5714 5714 5715 5715 5715 5714 5714 5714 5715 5717 5718 5719 5718 5718 5720 5722 5723 5724 5725 5727 5728 5728 5727 5728 5730 5732 5734 5735 5736 5738 5739 5740 5740 5742 5743 5745 5747 5749 5751 5752 5751 5752 5754 5756 5758 5760 5761
5744 5743 5743 5742 5741 5740 5739 5738 5738 5737 5736 5735 5734 5733 5732 5731 5730 5729 5728 5727 5726 5725 5724 5723 5722 5721 5719 5718 5717 5716 5715 5713 5712 5710 5709 5708 5707 5706 5707 5707 5707 5706 5706 5706 5706 5705 5705 5706 5708 5710 5710 5710 5710 5711 5712 5712 5714 5716 5718 5719 5720 5721 5720 5721 5723 5725 5726 5727 5729 5731 5731 5731 5732 5733 5735 5737 5739 5741 5743 5743 5743 5744 5747 5749 5751 5752 5754
5741 5740 5739 5738 5737 5736 5736 5735 5734 5733 5732 5731 5730 5729 5728 5727 5726 5724 5723 5722 5721 5720 5718 5717 5716 5715 5713 5712 5710 5709 5707 5706 5705 5703 5702 5701 5700 5699 5699 5699 5698 5697 5697 5697 5697 5697 5697 5698 5699 5700 5701 5701 5702 5703 5704 5704 5705 5708 5710 5711 5713 5714 5713 5713 5714 5716 5718 5720 5722 5723 5723 5723 5724 5725 5727 5729 5732 5733 5734 5734 5735 5737 5740 5742 5743 5744 5747
5737 5737 5736 5735 5734 5733 5731 5731 5730 5728 5727 5726 5725 5724 5723 5722 5721 5720 5718 5717 5716 5714 5713 5711 5710 5708 5707 5705 5703 5702 5700 5699 5697 5696 5694 5693 5692 5691 5691 5691 5690 5689 5688 5688 5689 5688 5689 5689 5690 5691 5691 5692 5693 5695 5696 5697 5698 5699 5701 5702 5704 5706 5706 5705 5706 5708 5711 5713 5714 5715 5714 5715 5716 5718 5720 5722 5724 5724 5725 5726 5727 5729 5732 5734 5735 5736 5738
5734 5733 5732 5731 5730 5729 5727 5726 5725 5724 5723 5722 5720 5719 5718 5717 5716 5715 5713 5712 5710 5708 5707 5705 5703 5702 5700 5698 5697 5695 5693 5692 5690 5689 5687 5685 5684 5683 5683 5683 5682 5680 5680 5680 5680 5680 5680 5681 5682 5682 5683 5683 5684 5686 5688 5689 5690 5691 5692 5694 5696 5697 5697 5697 5697 5699 5702 5705 5707 5707 5707 5708 5709 5711 5713 5715 5716 5716 5717 5718 5720 5723 5725 5725 5726 5728 5729
5730 5729 5728 5727 5726 5725 5724 5722 5721 5720 5719 5718 5716 5715 5713 5712 5710 5709 5707 5706 5704 5702 5701 5699 5697 5695 5693 5691 5690 5688 5686 5684 5683 5681 5679 5678 5677 5676 5675 5674 5673 5672 5672 5672 5672 5671 5671 5673 5674 5674 5675 5676 5677 5678 5680 5681 5682 5683 5685 5687 5687 5688 5688 5688 5688 5690 5693 5696 5698 5699 5699 5700 5702 5704 5706 5707 5708 5709 5710 5712 5714 5716 5717 5717 5718 5719 5720
5726 5725 5724 5723 5722 5721 5720 5719 5717 5716 5715 5713 5712 5710 5708 5707 5705 5703 5702 5700 5698 5696 5694 5692 5690 5688 5686 5684 5682 5680 5679 5677 5676 5674 5672 5670 5669 5668 5667 5666 5665 5664 5663 5663 5663 5663 5663 5664 5665 5666 5667 5668 5669 5670 5671 5674 5676 5677 5677 5677 5677 5678 5680 5680 5680 5681 5683 5685 5688 5690 5691 5693 5695 5697 5698 5698 5699 5701 5703 5706 5708 5709 5709 5710 5711 5712 5712
5722 5721 5720 5719 5718 5716 5715 5714 5712 5711 5709 5708 5706 5705 5703 5701 5700 5698 5696 5694 5692 5690 5688 5686 5684 5682 5680 5678 5675 5674 5671 5670 5668 5666 5665 5663 5661 5659 5658 5658 5657 5656 5655 5655 5655 5654 5655 5655 5655 5656 5658 5659 5660 5661 5663 5666 5669 5669 5667 5666 5667 5670 5673 5674 5674 5674 5675 5676 5679 5682 5683 5685 5687 5688 5689 5690 5691 5693 5696 5698 5700 5701 5702 5703 5703 5704 5705
5718 5717 5716 5714 5713 5712 5710 5709 5707 5705 5704 5702 5701 5699 5698 5696 5694 5692 5690 5688 5686 5684 5682 5680 5677 5675 5673 5671 5669 5667 5664 5662 5661 5659 5657 5655 5653 5652 5651 5650 5649 5648 5648 5647 5647 5646 5646 5645 5645 5646 5648 5650 5651 5652 5654 5657 5659 5658 5657 5658 5660 5663 5665 5666 5666 5667 5668 5670 5672 5675 5677 5678 5679 5680 5681 5683 5685 5686 5688 5690 5691 5692 5693 5694 5695 5697 5699
5714 5712 5711 5710 5708 5707 5705 5704 5702 5700 5698 5697 5695 5694 5692 5690 5688 5686 5685 5683 5680 5678 5676 5673 5671 5669 5666 5664 5662 5660 5657 5655 5653 5651 5649 5648 5646 5645 5644 5643 5641 5640 5640 5639 5638 5637 5637 5636 5636 5637 5639 5640 5642 5644 5647 5649 5649 5649 5650 5653 5655 5657 5658 5659 5660 5661 5662 5664 5666 5668 5670 5671 5672 5672 5674 5677 5678 5679 5681 5682 5683 5684 5684 5686 5688 5690 5691
5709 5708 5707 5706 5704 5702 5701 5699 5697 5695 5693 5692 5690 5689 5687 5685 5683 5681 5679 5677 5674 5672 5670 5667 5665 5662 5660 5658 5656 5653 5651 5648 5646 5644 5642 5641 5640 5639 5638 5636 5634 5633 5632 5631 5629 5628 5628 5628 5629 5630 5631 5633 5635 5637 5640 5642 5643 5643 5644 5647 5649 5651 5652 5653 5654 5655 5656 5657 5659 5661 5663 5664 5665 5665 5667 5668 5670 5671 5673 5675 5676 5676 5677 5678 5680 5682 5682
5705 5704 5703 5701 5700 5698 5696 5694 5692 5690 5688 5686 5685 5683 5681 5679 5677 5675 5673 5671 5669 5666 5664 5661 5659 5656 5654 5652 5650 5647 5645 5642 5640 5638 5636 5635 5634 5633 5632 5630 5628 5626 5625 5624 5623 5622 5622 5622 5623 5624 5626 5628 5629 5631 5633 5635 5636 5637 5639 5641 5643 5645 5645 5646 5648 5649 5650 5650 5652 5654 5656 5656 5657 5658 5660 5660 5661 5663 5665 5666 5667 5668 5670 5671 5672 5673 5674
5701 5700 5699 5697 5695 5693 5691 5689 5687 5685 5683 5681 5679 5677 5676 5674 5672 5670 5668 5666 5663 5661 5658 5655 5653 5650 5648 5646 5644 5642 5639 5637 5635 5633 5631 5630 5629 5628 5626 5625 5624 5622 5620 5619 5618 5618 5618 5618 5619 5620 5622 5623 5625 5626 5627 5629 5631 5633 5634 5635 5637 5638 5639 5640 5641 5642 5643 5644 5645 5647 5648 5648 5649 5651 5652 5653 5654 5655 5657 5658 5659 5660 5662 5663 5664 5665 5665
5696 5695 5694 5692 5690 5688 5686 5684 5683 5680 5678 5676 5674 5672 5671 5669 5667 5664 5662 5660 5658 5655 5652 5650 5647 5645 5643 5641 5639 5636 5634 5632 5631 5629 5627 5626 5624 5623 5622 5621 5620 5619 5618 5616 5616 5615 5615 5615 5616 5617 5618 5619 5620 5621 5623 5624 5626 5628 5629 5630 5631 5632 5633 5634 5635 5636 5637 5638 5639 5640 5641 5642 5643 5644 5645 5646 5647 5648 5649 5650 5651 5652 5654 5655 5656 5657 5658
5691 5690 5689 5687 5686 5684 5682 5680 5678 5676 5674 5671 5669 5668 5666 5664 5662 5659 5657 5655 5652 5650 5647 5645 5643 5640 5638 5635 5634 5632 5630 5628 5626 5625 5623 5622 5621 5620 5619 5618 5618 5617 5616 5615 5614 5613 5613 5613 5614 5615 5615 5616 5617 5618 5620 5621 5623 5624 5624 5625 5626 5628 5629 5629 5630 5631 5632 5633 5633 5634 5635 5636 5637 5638 5638 5640 5640 5641 5642 5643 5644 5645 5646 5647 5648 5649 5650
5687 5685 5684 5682 5681 5679 5677 5675 5673 5671 5669 5667 5665 5663 5662 5659 5657 5655 5653 5650 5648 5645 5642 5640 5638 5636 5634 5631 5629 5627 5625 5623 5622 5620 5619 5619 5617 5617 5616 5615 5615 5614 5613 5613 5612 5612 5611 5611 5611 5612 5613 5614 5615 5616 5617 5618 5619 5620 5620 5621 5622 5624 5624 5625 5625 5626 5627 5628 5628 5628 5629 5630 5631 5632 5633 5634 5634 5635 5636 5636 5637 5638 5639 5640 5641 5642 5643
5683 5681 5680 5678 5676 5674 5672 5670 5668 5667 5665 5663 5662 5660 5658 5655 5653 5650 5648 5646 5644 5642 5639 5636 5633 5631 5629 5627 5625 5623 5621 5620 5618 5617 5616 5615 5615 5614 5613 5613 5612 5611 5611 5610 5610 5609 5608 5608 5609 5609 5610 5611 5612 5613 5614 5615 5615 5616 5617 5618 5619 5619 5620 5621 5622 5622 5622 5623 5623 5624 5624 5625 5626 5627 5628 5628 5629 5630 5630 5631 5632 5632 5633 5634 5635 5636 5637